When you browse on this site, cookies collect data to enhance your experience and personalize the content and advertising you see.
Visit our Privacy Policy to learn more. By continuing to use the site, you agree to this use of cookies and data.
  • In Hungary
  • List of Countries
  • For 7 days
  • Water Temperature
  • Satellite Maps
  • Weather Map
  • News
  • Weather Widgets
  • user-avatar
    Login

    Hourly Weather Potoky

    Today, 18 July, Thursday

    Time Temperature Precipitation Wind Pressure Humidity
    00:00 +11°C° 0 mm 3 mps 732 mmHg 93%
    01:00 +11°C° 0 mm 3 mps 732 mmHg 94%
    02:00 +10°C° 0 mm 2 mps 733 mmHg 95%
    03:00 +10°C° 0 mm 2 mps 733 mmHg 95%
    04:00 +10°C° 0 mm 2 mps 733 mmHg 95%
    05:00 +10°C° 0 mm 2 mps 733 mmHg 95%
    06:00 +12°C° 0 mm 3 mps 733 mmHg 90%
    07:00 +13°C° 0 mm 3 mps 733 mmHg 85%
    08:00 +16°C° 0 mm 3 mps 734 mmHg 80%
    09:00 +17°C° 0 mm 4 mps 734 mmHg 74%
    10:00 +19°C° 0 mm 4 mps 734 mmHg 68%
    11:00 +20°C° 0 mm 4 mps 734 mmHg 62%
    12:00 +20°C° 0 mm 5 mps 734 mmHg 61%
    13:00 +21°C° 0 mm 5 mps 734 mmHg 60%
    14:00 +22°C° 0 mm 5 mps 734 mmHg 59%
    15:00 +21°C° 0.1 mm 5 mps 735 mmHg 61%
    16:00 +21°C° 0.1 mm 5 mps 735 mmHg 63%
    17:00 +21°C° 0.1 mm 4 mps 735 mmHg 66%
    18:00 +19°C° 0 mm 3 mps 735 mmHg 72%
    19:00 +18°C° 0 mm 3 mps 735 mmHg 79%
    20:00 +17°C° 0 mm 2 mps 735 mmHg 86%
    21:00 +16°C° 0 mm 2 mps 735 mmHg 87%
    22:00 +15°C° 0 mm 2 mps 736 mmHg 89%
    23:00 +15°C° 0 mm 2 mps 736 mmHg 90%

    Tomorrow, 19 July, Friday

    Time Temperature Precipitation Wind Pressure Humidity
    00:00 +14°C° 0 mm 2 mps 736 mmHg 91%
    01:00 +14°C° 0 mm 2 mps 736 mmHg 91%
    02:00 +14°C° 0 mm 2 mps 736 mmHg 92%
    03:00 +14°C° 0 mm 2 mps 736 mmHg 92%
    04:00 +13°C° 0 mm 2 mps 736 mmHg 92%
    05:00 +13°C° 0 mm 1 mps 736 mmHg 93%
    06:00 +15°C° 0 mm 2 mps 737 mmHg 86%
    07:00 +17°C° 0 mm 2 mps 737 mmHg 80%
    08:00 +19°C° 0 mm 2 mps 738 mmHg 74%
    09:00 +20°C° 0 mm 2 mps 738 mmHg 68%
    10:00 +21°C° 0 mm 2 mps 738 mmHg 62%
    11:00 +24°C° 0 mm 2 mps 738 mmHg 57%
    12:00 +24°C° 0.3 mm 2 mps 738 mmHg 57%
    13:00 +24°C° 0.3 mm 2 mps 738 mmHg 56%
    14:00 +25°C° 0.3 mm 2 mps 737 mmHg 56%
    15:00 +25°C° 0.4 mm 2 mps 737 mmHg 58%
    16:00 +24°C° 0.4 mm 1 mps 737 mmHg 59%
    17:00 +24°C° 0.4 mm 1 mps 737 mmHg 61%
    18:00 +23°C° 0.1 mm 1 mps 737 mmHg 66%
    19:00 +21°C° 0.1 mm 1 mps 737 mmHg 71%
    20:00 +20°C° 0.1 mm 1 mps 737 mmHg 77%
    21:00 +19°C° 0 mm 1 mps 737 mmHg 78%
    22:00 +19°C° 0 mm 1 mps 738 mmHg 79%
    23:00 +18°C° 0 mm 1 mps 738 mmHg 81%

    Day after tomorrow, 20 July, Saturday

    Time Temperature Precipitation Wind Pressure Humidity
    00:00 +18°C° 0.1 mm 1 mps 738 mmHg 82%
    01:00 +16°C° 0.1 mm 1 mps 738 mmHg 84%
    02:00 +16°C° 0.1 mm 1 mps 738 mmHg 85%
    03:00 +16°C° 0.4 mm 1 mps 738 mmHg 85%
    04:00 +15°C° 0.4 mm 0 mps 738 mmHg 85%
    05:00 +15°C° 0.4 mm 0 mps 738 mmHg 85%
    06:00 +17°C° 0.1 mm 0 mps 739 mmHg 81%
    07:00 +19°C° 0.1 mm 0 mps 739 mmHg 77%
    08:00 +22°C° 0.1 mm 1 mps 739 mmHg 72%
    09:00 +23°C° 0.6 mm 1 mps 739 mmHg 68%
    10:00 +25°C° 0.6 mm 1 mps 740 mmHg 63%
    11:00 +26°C° 0.6 mm 1 mps 740 mmHg 59%
    12:00 +26°C° 0.3 mm 1 mps 740 mmHg 56%
    13:00 +27°C° 0.3 mm 1 mps 740 mmHg 54%
    14:00 +27°C° 0.3 mm 1 mps 740 mmHg 51%
    15:00 +27°C° 0.1 mm 1 mps 740 mmHg 53%
    16:00 +27°C° 0.1 mm 1 mps 739 mmHg 55%
    17:00 +27°C° 0.1 mm 1 mps 739 mmHg 56%
    18:00 +25°C° 0.1 mm 1 mps 739 mmHg 63%
    19:00 +23°C° 0.1 mm 2 mps 740 mmHg 70%
    20:00 +20°C° 0.1 mm 2 mps 740 mmHg 76%
    21:00 +20°C° 0 mm 2 mps 740 mmHg 78%
    22:00 +19°C° 0 mm 2 mps 740 mmHg 79%
    23:00 +19°C° 0 mm 1 mps 740 mmHg 81%

    21 July, Sunday

    Time Temperature Precipitation Wind Pressure Humidity
    00:00 +19°C° 0 mm 1 mps 740 mmHg 82%
    01:00 +18°C° 0 mm 1 mps 740 mmHg 83%
    02:00 +18°C° 0 mm 1 mps 740 mmHg 84%
    03:00 +18°C° 0 mm 1 mps 740 mmHg 84%
    04:00 +18°C° 0 mm 1 mps 740 mmHg 84%
    05:00 +18°C° 0 mm 1 mps 740 mmHg 85%
    06:00 +19°C° 0 mm 1 mps 740 mmHg 80%
    07:00 +21°C° 0 mm 1 mps 740 mmHg 75%
    08:00 +23°C° 0 mm 1 mps 740 mmHg 70%
    09:00 +24°C° 0.2 mm 1 mps 740 mmHg 67%
    10:00 +26°C° 0.2 mm 1 mps 740 mmHg 64%
    11:00 +27°C° 0.2 mm 1 mps 741 mmHg 61%
    12:00 +27°C° 0.9 mm 2 mps 740 mmHg 59%
    13:00 +28°C° 0.9 mm 2 mps 740 mmHg 57%
    14:00 +28°C° 0.9 mm 2 mps 740 mmHg 55%
    15:00 +28°C° 0.2 mm 2 mps 740 mmHg 56%
    16:00 +28°C° 0.2 mm 2 mps 740 mmHg 57%
    17:00 +28°C° 0.2 mm 2 mps 739 mmHg 58%
    18:00 +27°C° 0.3 mm 1 mps 739 mmHg 63%
    19:00 +25°C° 0.3 mm 1 mps 739 mmHg 68%
    20:00 +23°C° 0.3 mm 1 mps 739 mmHg 73%
    21:00 +23°C° 0.4 mm 1 mps 739 mmHg 76%
    22:00 +22°C° 0.4 mm 1 mps 739 mmHg 79%
    23:00 +21°C° 0.4 mm 1 mps 739 mmHg 82%

    22 July, Monday

    Time Temperature Precipitation Wind Pressure Humidity
    00:00 +20°C° 0.3 mm 2 mps 739 mmHg 82%
    01:00 +20°C° 0.3 mm 2 mps 738 mmHg 83%
    02:00 +20°C° 0.3 mm 3 mps 738 mmHg 84%
    03:00 +20°C° 0.1 mm 3 mps 738 mmHg 86%
    04:00 +19°C° 0.1 mm 3 mps 738 mmHg 89%
    05:00 +19°C° 0.1 mm 4 mps 738 mmHg 91%
    06:00 +20°C° 0 mm 4 mps 738 mmHg 87%
    07:00 +21°C° 0 mm 4 mps 738 mmHg 83%
    08:00 +22°C° 0 mm 5 mps 738 mmHg 78%
    09:00 +23°C° 0 mm 5 mps 738 mmHg 74%
    10:00 +25°C° 0 mm 5 mps 739 mmHg 70%
    11:00 +26°C° 0 mm 5 mps 739 mmHg 66%
    12:00 +26°C° 0.2 mm 5 mps 739 mmHg 65%
    13:00 +27°C° 0.2 mm 6 mps 738 mmHg 64%
    14:00 +27°C° 0.2 mm 6 mps 738 mmHg 63%
    15:00 +26°C° 0.1 mm 6 mps 738 mmHg 66%
    16:00 +26°C° 0.1 mm 5 mps 738 mmHg 68%
    17:00 +25°C° 0.1 mm 5 mps 738 mmHg 71%
    18:00 +23°C° 0 mm 5 mps 738 mmHg 75%
    19:00 +22°C° 0 mm 4 mps 738 mmHg 80%
    20:00 +20°C° 0 mm 3 mps 738 mmHg 85%
    21:00 +19°C° 0 mm 3 mps 738 mmHg 87%
    22:00 +18°C° 0 mm 3 mps 738 mmHg 90%
    23:00 +18°C° 0 mm 3 mps 738 mmHg 92%

    23 July, Tuesday

    Time Temperature Precipitation Wind Pressure Humidity
    00:00 +17°C° 0 mm 3 mps 738 mmHg 93%
    01:00 +17°C° 0 mm 3 mps 738 mmHg 93%
    02:00 +17°C° 0 mm 2 mps 738 mmHg 94%
    03:00 +16°C° 0 mm 2 mps 738 mmHg 94%
    04:00 +16°C° 0 mm 2 mps 737 mmHg 95%
    05:00 +16°C° 0 mm 2 mps 737 mmHg 95%
    06:00 +17°C° 0 mm 3 mps 737 mmHg 90%
    07:00 +19°C° 0 mm 3 mps 737 mmHg 86%
    08:00 +20°C° 0 mm 4 mps 737 mmHg 81%
    09:00 +21°C° 0 mm 4 mps 737 mmHg 76%
    10:00 +22°C° 0 mm 4 mps 737 mmHg 71%
    11:00 +23°C° 0 mm 4 mps 737 mmHg 66%
    12:00 +23°C° 0.1 mm 5 mps 737 mmHg 65%
    13:00 +25°C° 0.1 mm 5 mps 737 mmHg 64%
    14:00 +25°C° 0.1 mm 5 mps 737 mmHg 63%
    15:00 +25°C° 0.2 mm 5 mps 737 mmHg 65%
    16:00 +25°C° 0.2 mm 5 mps 737 mmHg 66%
    17:00 +23°C° 0.2 mm 5 mps 736 mmHg 68%
    18:00 +22°C° 0.1 mm 4 mps 736 mmHg 74%
    19:00 +20°C° 0.1 mm 4 mps 736 mmHg 80%
    20:00 +19°C° 0.1 mm 3 mps 736 mmHg 86%
    21:00 +18°C° 0 mm 3 mps 736 mmHg 88%
    22:00 +18°C° 0 mm 3 mps 736 mmHg 90%
    23:00 +17°C° 0 mm 3 mps 736 mmHg 92%
    Show more